Volver al catálogo

STARLINK-32721

ActivoComunicacionesVLEO
NORAD 62438·PAYLOAD·🇺🇸 United States

Lanzado Dec 29, 2024 desde Vandenberg Space Force Base

Loading…

Próximos Pases (próximas 24 horas)

TLE

ActualizadoSource: CelesTrak SupGP

Época: Sep 15, 2026, 02:10 UTC

1 62438C 24251G   26258.09076389 -.00079003  00000+0 -23342-2 0  2586
2 62438  53.1577 172.8489 0001410  84.3194 315.4431 15.34429240    13

Sigue STARLINK-32721 en tiempo real con AllMySat

Download on the App Store